Jackson, MN

7:40 AM CST on December 15, 2019 (GMT -0600)
Jackson Municipal

Weather History for KMJQ - November, 2019

Change the Weather History Date:

Wednesday, November 13, 2019

  Actual Average Record
Temperature  
Mean Temperature 27 °F -  
Max Temperature 33 °F 41 °F 80 °F (1999)
Min Temperature 21 °F 25 °F 6 °F (2018)
Degree Days  
Heating Degree Days 38    
Moisture  
Dew Point 21 °F    
Average Humidity 77    
Maximum Humidity 93    
Minimum Humidity 64    
Precipitation  
Precipitation 0.00 in - - ()
Sea Level Pressure  
Sea Level Pressure 29.92 in    
Wind  
Wind Speed 12 mph ()    
Max Wind Speed 20 mph    
Max Gust Speed 24 mph    
Visibility 9.5 miles    
Events Rain , Snow    
Averages and records for this station are not official NWS values.
T = Trace of Precipitation, MM = Missing Value Source: Averaged Metar Reports

Daily Weather History Graph

Daily Weather History Graph

Search for Another Location

Airport or City:

Astronomy

Nov. 13, 2019 Rise Set
Actual Time 7:11 AM CST 4:56 PM CST
Civil Twilight 6:40 AM CST 5:27 PM CST
Nautical Twilight 6:05 AM CST 6:02 PM CST
Astronomical Twilight 5:31 AM CST 6:35 PM CST
Moon 5:59 PM CST (11/13) 8:05 AM CST (11/13)
Length of Visible Light 10h 47m
Length of Day
9h 45m
Full, 99% of the Moon is Illuminated
Nov 13
Full
Nov 19
Last Quarter
Nov 26
New
Dec 4
First Quarter
Dec 11
Full

Hourly Weather History & Observations

Time (CST) Temp. Windchill Dew Point Humidity Pressure Visibility Wind Dir Wind Speed Gust Speed Precip Events Conditions
12:15 AM 21.2 °F 7.3 °F 12.2 °F 68% 29.90 in 10.0 mi South 16.1 mph 20.7 mph N/A   Overcast
12:35 AM 21.2 °F 7.3 °F 14.0 °F 74% 29.89 in 10.0 mi South 16.1 mph 24.2 mph N/A   Overcast
12:55 AM 21.2 °F 6.8 °F 14.0 °F 74% 29.88 in 10.0 mi South 17.3 mph 20.7 mph N/A   Overcast
1:15 AM 21.2 °F 6.8 °F 14.0 °F 74% 29.86 in 10.0 mi South 17.3 mph 21.9 mph N/A   Overcast
1:35 AM 23.0 °F 9.6 °F 14.0 °F 68% 29.86 in 10.0 mi South 16.1 mph 21.9 mph N/A   Overcast
1:55 AM 23.0 °F 10.1 °F 14.0 °F 68% 29.86 in 10.0 mi South 15.0 mph 18.4 mph N/A   Overcast
1:56 AM 23.0 °F 10.1 °F 14.0 °F 68% 29.86 in 10.0 mi South 15.0 mph 18.4 mph N/A   Overcast
2:15 AM 23.0 °F 10.6 °F 14.0 °F 68% 29.84 in 10.0 mi South 13.8 mph - N/A   Overcast
2:35 AM 23.0 °F 10.6 °F 14.0 °F 68% 29.84 in 10.0 mi SSW 13.8 mph 18.4 mph N/A   Overcast
2:55 AM 23.0 °F 11.1 °F 15.8 °F 74% 29.84 in 10.0 mi SSW 12.7 mph - N/A   Overcast
2:56 AM 23.0 °F 11.1 °F 15.8 °F 74% 29.84 in 10.0 mi SSW 12.7 mph - N/A   Overcast
3:15 AM 24.8 °F 12.9 °F 15.8 °F 69% 29.83 in 10.0 mi SSW 13.8 mph - N/A   Overcast
3:35 AM 26.6 °F 14.7 °F 17.6 °F 69% 29.82 in 10.0 mi SSW 15.0 mph - N/A   Overcast
3:55 AM 26.6 °F 15.2 °F 17.6 °F 69% 29.82 in 10.0 mi SSW 13.8 mph - N/A   Overcast
3:56 AM 26.6 °F 15.7 °F 17.6 °F 69% 29.82 in 10.0 mi SSW 12.7 mph - N/A   Overcast
4:15 AM 26.6 °F 15.2 °F 17.6 °F 69% 29.82 in 10.0 mi SSW 13.8 mph - N/A   Overcast
4:16 AM 26.6 °F 15.2 °F 17.6 °F 69% 29.82 in 10.0 mi SSW 13.8 mph - N/A   Overcast
4:35 AM 26.6 °F 14.7 °F 17.6 °F 69% 29.83 in 10.0 mi SSW 15.0 mph - N/A   Overcast
4:36 AM 26.6 °F 14.7 °F 17.6 °F 69% 29.83 in 10.0 mi SSW 15.0 mph - N/A   Overcast
4:55 AM 26.6 °F 14.3 °F 17.6 °F 69% 29.83 in 10.0 mi SSW 16.1 mph - N/A   Overcast
4:56 AM 26.6 °F 14.3 °F 17.6 °F 69% 29.83 in 10.0 mi SSW 16.1 mph - N/A   Overcast
5:15 AM 28.4 °F 16.6 °F 17.6 °F 64% 29.83 in 10.0 mi SSW 16.1 mph - N/A   Overcast
5:16 AM 28.4 °F 16.6 °F 17.6 °F 64% 29.83 in 10.0 mi SSW 16.1 mph - N/A   Overcast
5:35 AM 28.4 °F 18.5 °F 17.6 °F 64% 29.83 in 10.0 mi SSW 11.5 mph - N/A   Overcast
5:55 AM 28.4 °F 18.5 °F 17.6 °F 64% 29.83 in 10.0 mi SW 11.5 mph - N/A   Overcast
5:56 AM 28.4 °F 19.1 °F 17.6 °F 64% 29.83 in 10.0 mi SW 10.4 mph - N/A   Overcast
6:15 AM 28.4 °F 18.5 °F 17.6 °F 64% 29.83 in 10.0 mi SSW 11.5 mph - N/A   Overcast
6:16 AM 28.4 °F 18.0 °F 17.6 °F 64% 29.83 in 10.0 mi SSW 12.7 mph - N/A   Overcast
6:35 AM 28.4 °F 17.0 °F 19.4 °F 69% 29.81 in 10.0 mi SSW 15.0 mph - N/A   Overcast
6:36 AM 28.4 °F 17.0 °F 19.4 °F 69% 29.81 in 10.0 mi SSW 15.0 mph - N/A   Overcast
6:55 AM 28.4 °F 16.2 °F 19.4 °F 69% 29.82 in 10.0 mi SSW 17.3 mph - N/A   Overcast
7:15 AM 28.4 °F 18.0 °F 19.4 °F 69% 29.82 in 10.0 mi SSW 12.7 mph - N/A   Overcast
7:16 AM 28.4 °F 17.5 °F 19.4 °F 69% 29.83 in 10.0 mi SSW 13.8 mph - N/A   Overcast
7:35 AM 28.4 °F 18.0 °F 19.4 °F 69% 29.83 in 10.0 mi SW 12.7 mph 18.4 mph N/A   Overcast
7:36 AM 28.4 °F 18.5 °F 19.4 °F 69% 29.83 in 10.0 mi SW 11.5 mph 18.4 mph N/A   Overcast
7:55 AM 28.4 °F 19.1 °F 19.4 °F 69% 29.83 in 10.0 mi SW 10.4 mph 16.1 mph N/A   Overcast
8:15 AM 28.4 °F 18.5 °F 19.4 °F 69% 29.85 in 10.0 mi SW 11.5 mph - N/A   Overcast
8:35 AM 28.4 °F - 19.4 °F 69% 29.86 in 10.0 mi Calm Calm - N/A   Overcast
8:55 AM 30.2 °F 22.6 °F 21.2 °F 69% 29.86 in 10.0 mi WSW 8.1 mph - N/A   Overcast
9:15 AM 30.2 °F 22.6 °F 21.2 °F 69% 29.88 in 10.0 mi West 8.1 mph - N/A   Overcast
9:35 AM 30.2 °F 23.4 °F 21.2 °F 69% 29.88 in 10.0 mi West 6.9 mph - N/A   Overcast
9:36 AM 30.2 °F 23.4 °F 21.2 °F 69% 29.88 in 10.0 mi West 6.9 mph - N/A   Overcast
9:55 AM 30.2 °F 22.6 °F 21.2 °F 69% 29.88 in 10.0 mi West 8.1 mph - N/A   Overcast
9:56 AM 30.2 °F 21.9 °F 21.2 °F 69% 29.88 in 10.0 mi West 9.2 mph - N/A   Overcast
10:15 AM 32.0 °F 24.8 °F 23.0 °F 69% 29.88 in 10.0 mi West 8.1 mph - N/A   Overcast
10:16 AM 32.0 °F 24.8 °F 23.0 °F 69% 29.88 in 10.0 mi West 8.1 mph - N/A   Overcast
10:35 AM 32.0 °F 25.6 °F 23.0 °F 69% 29.88 in 10.0 mi West 6.9 mph - N/A   Overcast
10:36 AM 32.0 °F 25.6 °F 23.0 °F 69% 29.88 in 10.0 mi West 6.9 mph - N/A   Overcast
10:55 AM 32.0 °F 24.2 °F 23.0 °F 69% 29.89 in 10.0 mi WNW 9.2 mph - N/A   Overcast
11:15 AM 32.0 °F 23.6 °F 23.0 °F 69% 29.89 in 10.0 mi WNW 10.4 mph - N/A   Overcast
11:35 AM 32.0 °F 26.4 °F 23.0 °F 69% 29.90 in 10.0 mi WNW 5.8 mph - N/A   Overcast
11:55 AM 32.0 °F 25.6 °F 23.0 °F 69% 29.90 in 10.0 mi WNW 6.9 mph - N/A   Overcast
12:15 PM 32.0 °F 24.2 °F 24.8 °F 75% 29.90 in 10.0 mi NW 9.2 mph - N/A   Overcast
12:35 PM 33.8 °F 28.6 °F 26.6 °F 75% 29.90 in 7.0 mi NNW 5.8 mph - N/A Snow Light Snow
1:15 PM 33.8 °F 26.4 °F 26.6 °F 75% 29.91 in 10.0 mi NW 9.2 mph - N/A Snow Light Snow
1:35 PM 32.0 °F 24.8 °F 28.4 °F 87% 29.90 in 4.0 mi WNW 8.1 mph - N/A Snow Light Snow
1:55 PM 32.0 °F 24.2 °F 30.2 °F 93% 29.91 in 5.0 mi NW 9.2 mph - N/A Snow Light Snow
2:15 PM 32.0 °F 25.6 °F 30.2 °F 93% 29.92 in 7.0 mi NW 6.9 mph - N/A Snow Light Snow
2:16 PM 32.0 °F 24.8 °F 30.2 °F 93% 29.92 in 7.0 mi NW 8.1 mph - N/A Snow Light Snow
2:35 PM 32.0 °F 23.0 °F 30.2 °F 93% 29.92 in 7.0 mi NW 11.5 mph - N/A   Light Drizzle
2:55 PM 32.0 °F 23.6 °F 30.2 °F 93% 29.93 in 5.0 mi NNW 10.4 mph - N/A Rain Light Rain
2:56 PM 32.0 °F 23.0 °F 30.2 °F 93% 29.93 in 5.0 mi NNW 11.5 mph - N/A Rain Light Rain
3:15 PM 32.0 °F 22.5 °F 30.2 °F 93% 29.94 in 5.0 mi NNW 12.7 mph 16.1 mph N/A   Light Drizzle
3:16 PM 32.0 °F 21.6 °F 30.2 °F 93% 29.94 in 5.0 mi NNW 15.0 mph - N/A   Light Drizzle
3:35 PM 32.0 °F 22.5 °F 30.2 °F 93% 29.95 in 5.0 mi NW 12.7 mph - N/A   Light Drizzle
3:55 PM 32.0 °F 22.1 °F 28.4 °F 87% 29.96 in 7.0 mi NW 13.8 mph - N/A   Light Drizzle
4:15 PM 32.0 °F 22.1 °F 28.4 °F 87% 29.96 in 10.0 mi NW 13.8 mph 23.0 mph N/A   Overcast
4:16 PM 32.0 °F 22.1 °F 28.4 °F 87% 29.96 in 10.0 mi NW 13.8 mph 23.0 mph N/A   Overcast
4:35 PM 32.0 °F 20.1 °F 28.4 °F 87% 29.97 in 10.0 mi NNW 19.6 mph - N/A   Overcast
4:36 PM 32.0 °F 20.5 °F 28.4 °F 87% 29.97 in 10.0 mi NNW 18.4 mph - N/A   Overcast
4:55 PM 32.0 °F 21.6 °F 28.4 °F 87% 29.98 in 10.0 mi NNW 15.0 mph 21.9 mph N/A   Overcast
5:15 PM 30.2 °F 19.3 °F 26.6 °F 86% 29.98 in 10.0 mi NNW 15.0 mph 19.6 mph N/A   Overcast
5:35 PM 30.2 °F 18.9 °F 26.6 °F 86% 29.99 in 10.0 mi NW 16.1 mph 23.0 mph N/A   Overcast
5:55 PM 30.2 °F 19.8 °F 26.6 °F 86% 30.00 in 10.0 mi NW 13.8 mph - N/A   Overcast
6:16 PM 30.2 °F 19.8 °F 24.8 °F 80% 30.01 in 10.0 mi NNW 13.8 mph 19.6 mph N/A   Mostly Cloudy
6:35 PM 30.2 °F 21.9 °F 23.0 °F 75% 30.02 in 10.0 mi NNW 9.2 mph - N/A   Scattered Clouds
6:55 PM 28.4 °F 19.7 °F 23.0 °F 80% 30.03 in 10.0 mi NNW 9.2 mph - N/A   Clear
7:15 PM 28.4 °F 20.4 °F 23.0 °F 80% 30.03 in 10.0 mi NNW 8.1 mph - N/A   Clear
7:16 PM 28.4 °F 20.4 °F 23.0 °F 80% 30.03 in 10.0 mi NNW 8.1 mph - N/A   Clear
7:55 PM 26.6 °F 18.2 °F 23.0 °F 86% 30.04 in 10.0 mi NW 8.1 mph - N/A   Clear
7:56 PM 26.6 °F 18.2 °F 23.0 °F 86% 30.04 in 10.0 mi NW 8.1 mph - N/A   Clear
8:15 PM 24.8 °F 16.9 °F 21.2 °F 86% 30.04 in 10.0 mi NW 6.9 mph - N/A   Clear
8:35 PM 24.8 °F 19.1 °F 21.2 °F 86% 30.06 in 10.0 mi NW 4.6 mph - N/A   Clear
8:36 PM 24.8 °F 19.1 °F 21.2 °F 86% 30.06 in 10.0 mi NW 4.6 mph - N/A   Clear
8:55 PM 23.0 °F 17.0 °F 21.2 °F 93% 30.07 in 10.0 mi NNW 4.6 mph - N/A   Clear
8:56 PM 23.0 °F 17.0 °F 21.2 °F 93% 30.07 in 10.0 mi NNW 4.6 mph - N/A   Clear
9:15 PM 23.0 °F 18.4 °F 21.2 °F 93% 30.08 in 10.0 mi North 3.5 mph - N/A   Mostly Cloudy
9:16 PM 23.0 °F 17.0 °F 21.2 °F 93% 30.08 in 10.0 mi NNW 4.6 mph - N/A   Mostly Cloudy
9:35 PM 24.8 °F 17.9 °F 21.2 °F 86% 30.08 in 10.0 mi NNW 5.8 mph - N/A   Overcast
9:36 PM 24.8 °F 19.1 °F 21.2 °F 86% 30.08 in 10.0 mi NNW 4.6 mph - N/A   Overcast
9:55 PM 24.8 °F 17.9 °F 21.2 °F 86% 30.09 in 10.0 mi NNW 5.8 mph - N/A   Overcast
10:15 PM 24.8 °F 20.5 °F 21.2 °F 86% 30.09 in 10.0 mi North 3.5 mph - N/A   Overcast
10:35 PM 23.0 °F 14.7 °F 19.4 °F 86% 30.09 in 10.0 mi NNW 6.9 mph - N/A   Mostly Cloudy
10:55 PM 23.0 °F 12.4 °F 19.4 °F 86% 30.10 in 10.0 mi NNW 10.4 mph 16.1 mph N/A   Scattered Clouds
11:15 PM 23.0 °F 13.1 °F 19.4 °F 86% 30.10 in 10.0 mi NNW 9.2 mph - N/A   Scattered Clouds
11:16 PM 23.0 °F 13.1 °F 19.4 °F 86% 30.10 in 10.0 mi NNW 9.2 mph - N/A   Scattered Clouds
11:35 PM 23.0 °F 13.9 °F 19.4 °F 86% 30.11 in 10.0 mi NNW 8.1 mph - N/A   Mostly Cloudy
11:55 PM 23.0 °F 12.4 °F 19.4 °F 86% 30.11 in 10.0 mi NNW 10.4 mph - N/A   Overcast